[[{"header":{"parameterUnit":"m.s-1","parameterCategory":1,"la1":30.2991,"la2":30.254,"lo1":-89.0895,"lo2":-89.0444,"dy":0.0017,"dx":0.0017,"nx":28,"ny":28,"refTime":"2026-02-06T09:00:00:Z","depth":0,"parameterNumber":2,"parameterNumberName":"U-component_of_WINDS"},"data":[0,0,0,0,0,0,0,0,0,0,0,0,0,0,0,0,0,0,0,0,0,0,0,0,0,0,0,0,0,0,0,0,0,0,0,0,0,0,0,0,0,0,0,0,0,0,0,0,0,0,0,0,0,0,0,0,0,0,4.2062,4.2064,0,4.2198,4.22,4.2201,4.2152,4.2149,4.2146,4.2143,4.229,4.2297,4.2303,0,0,0,0,0,0,0,0,0,0,0,0,0,4.177,4.1776,4.2062,4.2064,4.2065,4.2198,4.22,4.2202,4.2152,4.2149,4.2145,4.2141,4.2288,4.2296,4.2304,0,0,0,0,0,0,0,0,0,0,0,0,0,4.1901,4.1777,4.2062,4.2057,4.2057,4.2198,4.22,4.2202,4.2153,4.2149,4.2144,4.214,4.2285,4.2295,4.2305,4.2461,0,0,4.2336,4.2341,0,0,0,0,0,0,0,0,4.1894,4.1912,4.2056,4.2057,4.2058,4.2153,4.2151,4.2289,4.2154,4.2117,4.2143,4.2137,4.2249,4.2262,4.2298,4.2468,4.2474,4.2337,4.2343,4.2348,4.2351,0,0,0,0,0,0,0,4.1884,4.1906,4.2116,4.2058,4.206,4.2051,4.2065,4.2177,4.2208,4.212,4.2117,4.2133,4.2249,4.2288,4.2301,4.2476,4.2337,4.2346,4.2352,4.2356,4.2789,4.2794,0,0,0,0,0,0,4.1874,4.1898,4.2112,4.212,4.1963,4.206,4.2075,4.2128,4.2206,4.2213,4.2137,4.213,4.2273,4.2289,4.2306,4.2499,4.2348,4.2357,4.2363,4.2784,4.279,4.2796,0,0,0,0,0,0,4.1867,4.1893,4.2106,4.2009,4.2035,4.207,4.2129,4.2133,4.2172,4.2219,4.2225,4.2171,4.227,4.2291,4.2424,4.2503,4.2362,4.2371,4.2778,4.2786,4.2793,4.2883,0,0,0,0,0,0,4.1859,4.1891,4.1948,4.201,4.204,4.2219,4.2134,4.2139,4.2189,4.2181,4.2252,4.226,4.2268,4.2409,4.2434,4.2514,4.2379,4.2771,4.2781,4.2791,4.2873,4.2893,4.291,0,0,0,0,0,4.1849,4.1968,4.1951,4.1977,4.2111,4.2224,4.2241,4.2246,4.2195,4.2255,4.2286,4.2257,4.2489,4.2423,4.2451,4.2535,4.2766,4.2778,4.279,4.2865,4.2889,4.2909,0,0,0,0,0,0,4.1915,4.1975,4.1958,4.2099,4.2157,4.2215,4.229,4.2271,4.2345,4.2336,4.2341,4.2358,4.2495,4.2528,4.2453,4.2694,4.2621,4.2639,4.2668,4.2691,4.2709,4.27,4.2388,0,0,0,0,0,4.1946,4.2029,4.2078,4.2199,4.2228,4.2254,4.2303,4.2302,4.2363,4.2388,4.2428,4.2491,4.2579,4.2636,4.2719,4.2876,4.2895,4.2949,4.2967,4.2982,4.2999,4.3092,4.3119,4.2836,4.2836,4.2836,0,0,4.2011,4.2054,4.2106,4.2213,4.2257,4.2348,4.2275,4.2372,4.2441,4.2403,4.2531,4.2564,4.2635,4.2782,4.2849,4.2814,4.3081,4.2998,4.3009,4.3018,4.3107,4.3134,4.3158,4.2844,4.2843,4.2841,0,0,4.2176,4.2214,4.2322,4.2368,4.2436,4.2454,4.248,4.2542,4.2562,4.269,4.2666,4.2749,4.2898,4.2952,4.2998,4.3189,4.3168,4.3216,4.3314,4.3404,4.3427,4.3446,4.352,4.3546,4.3232,4.3232,4.3232,0,4.2249,4.2381,4.238,4.2481,4.2532,4.25,4.2613,4.2658,4.2751,4.2789,4.2747,4.2937,4.2982,4.3145,4.3192,4.3229,4.3263,4.3209,4.3423,4.3443,4.3461,4.3532,4.3559,4.3238,4.3237,4.3237,4.3236,0,4.247,4.2563,4.2642,4.2732,4.2791,4.2896,4.2917,4.2977,4.2972,4.2996,4.3131,4.3184,4.328,4.3317,4.3313,4.3482,4.3459,4.342,4.3347,4.3494,4.3561,4.3587,4.3246,4.3244,4.3242,4.3241,0,0,4.268,4.2771,4.2801,4.2844,4.2918,4.2992,4.3099,4.3191,4.3246,4.3311,4.3405,4.3534,4.35,4.3554,4.3556,4.3634,4.379,4.3587,4.3589,4.3627,4.3987,4.4019,4.4049,4.3775,4.378,4.3784,4.3982,0,4.2856,4.3041,4.3046,4.3218,4.3307,4.3281,4.3375,4.3434,4.346,4.3542,4.3571,4.3665,4.361,4.3643,4.3719,4.3755,4.3863,4.374,4.3868,4.3872,4.3855,4.4083,4.4116,4.4301,4.4008,4.4012,4.4015,0,4.3085,4.3158,4.3339,4.3406,4.3443,4.3527,4.3616,4.3693,4.3761,4.3775,4.3836,4.3828,4.3943,4.3864,4.4026,4.3942,4.3995,4.4021,4.4029,4.4044,4.3955,4.411,4.4359,4.4389,4.4055,4.4052,4.4049,0,4.3227,4.3371,4.3499,4.3536,4.3616,4.3677,4.3714,4.3777,4.3834,4.3912,4.395,4.4041,4.4092,4.4165,4.4183,4.4123,4.4348,4.4268,4.4367,4.4367,4.4418,4.4415,4.4684,4.4445,4.4444,4.4444,4.4443,0,4.3425,4.3538,4.3565,4.3644,4.3772,4.3779,4.3906,4.3939,4.3996,4.4085,4.4068,4.4152,4.4169,4.4259,4.4274,4.441,4.4432,4.445,4.4454,4.4454,4.4453,4.4492,4.4482,4.4451,4.4449,4.4448,4.4447,0,4.3607,4.3628,4.3767,4.3832,4.3852,4.3944,4.4001,4.408,4.4104,4.4217,4.4244,4.4284,4.4389,4.4414,4.4539,4.455,4.4712,4.4701,4.4689,4.4689,4.4789,4.4781,4.5095,4.514,4.4867,4.4869,4.4871,0,4.3733,4.382,4.3895,4.3952,4.3992,4.4084,4.4143,4.4154,4.4217,4.4304,4.4374,4.4476,4.4559,4.473,4.4772,4.487,4.4864,4.4967,4.4878,4.4878,4.4872,4.4869,4.488,4.4986,4.4988,4.4991,4.4993,0,4.3959,4.3966,4.4049,4.414,4.421,4.4281,4.4349,4.4398,4.442,4.4492,4.4598,4.4663,4.4792,4.4896,4.4995,4.5037,4.5022,4.502,4.5049,4.5053,4.5044,4.5056,4.474,4.5014,4.5011,4.501,4.5009,4.5008,4.412,4.4199,4.4265,4.436,4.4413,4.4478,4.4557,4.4592,4.468,4.4785,4.4786,4.4905,4.4977,4.5107,4.5155,4.5251,4.522,4.526,4.5271,4.5282,4.5294,4.5025,4.5268,4.5268,4.5267,4.5267,4.5266,0,4.4349,4.4391,4.4479,4.4575,4.4653,4.4627,4.4703,4.4771,4.4874,4.4941,4.5023,4.5149,4.5252,4.5303,4.5406,4.5473,4.5469,4.55,4.5498,4.5509,4.5313,4.528,4.5502,4.5502,4.5502,4.5502,4.5502,4.5502,4.4478,4.461,4.4627,4.4787,4.4829,4.4943,4.499,4.5052,4.5106,4.5247,4.5331,4.5363,4.5426,4.5534,4.5629,4.5642,4.5683,4.5719,4.5729,4.5546,4.5522,4.5499,4.5469,4.5727,4.5727,4.5918,4.592,4.5921]},{"header":{"parameterUnit":"m.s-1","parameterCategory":1,"la1":30.2991,"la2":30.254,"lo1":-89.0895,"lo2":-89.0444,"dy":0.0017,"dx":0.0017,"nx":28,"ny":28,"refTime":"2026-02-06T09:00:00:Z","depth":0,"parameterNumber":3,"parameterNumberName":"V-component_of_WINDS"},"data":[0,0,0,0,0,0,0,0,0,0,0,0,0,0,0,0,0,0,0,0,0,0,0,0,0,0,0,0,0,0,0,0,0,0,0,0,0,0,0,0,0,0,0,0,0,0,0,0,0,0,0,0,0,0,0,0,0,0,0.8659,0.866,0,0.8728,0.8729,0.873,0.8746,0.8745,0.8745,0.8744,0.8814,0.8817,0.8819,0,0,0,0,0,0,0,0,0,0,0,0,0,0.8539,0.8541,0.8659,0.866,0.8661,0.8728,0.8729,0.873,0.8746,0.8745,0.8745,0.8744,0.8814,0.8816,0.8819,0,0,0,0,0,0,0,0,0,0,0,0,0,0.8598,0.8542,0.8659,0.8677,0.8679,0.8728,0.8729,0.873,0.8746,0.8745,0.8745,0.8744,0.8813,0.8816,0.882,0.8855,0,0,0.883,0.8832,0,0,0,0,0,0,0,0,0.8595,0.8602,0.8673,0.8676,0.8678,0.8728,0.8712,0.8772,0.8746,0.8721,0.8744,0.8744,0.8786,0.8792,0.8806,0.8858,0.8861,0.883,0.8832,0.8834,0.8835,0,0,0,0,0,0,0,0.859,0.8599,0.8686,0.8674,0.8677,0.8681,0.8688,0.8724,0.8756,0.8723,0.8724,0.8732,0.8787,0.8803,0.8808,0.8862,0.883,0.8833,0.8835,0.8837,0.8943,0.8944,0,0,0,0,0,0,0.8583,0.8596,0.8684,0.8688,0.8634,0.8684,0.8692,0.8713,0.8756,0.8762,0.8733,0.8733,0.8797,0.8804,0.881,0.8853,0.8834,0.8837,0.8839,0.8943,0.8944,0.8944,0,0,0,0,0,0,0.8581,0.8591,0.8681,0.8643,0.8654,0.8686,0.8709,0.8714,0.873,0.8764,0.8769,0.8743,0.8797,0.8806,0.8843,0.8856,0.8839,0.8842,0.8942,0.8943,0.8944,0.8939,0,0,0,0,0,0,0.8577,0.859,0.8605,0.8643,0.8656,0.8714,0.871,0.8716,0.8736,0.8736,0.8774,0.878,0.8797,0.8838,0.8846,0.886,0.8844,0.8941,0.8942,0.8944,0.8938,0.894,0.8941,0,0,0,0,0,0.8573,0.8601,0.8605,0.8616,0.8675,0.8714,0.8722,0.8741,0.8737,0.8751,0.8772,0.8779,0.8853,0.8841,0.8851,0.8866,0.894,0.8942,0.8944,0.8938,0.894,0.8941,0,0,0,0,0,0,0.8564,0.8606,0.8612,0.8653,0.868,0.8717,0.8736,0.8743,0.8772,0.8771,0.8794,0.8802,0.8838,0.8856,0.8842,0.8901,0.8896,0.89,0.8888,0.889,0.8892,0.8887,0.8847,0,0,0,0,0,0.8567,0.8595,0.8631,0.8664,0.8677,0.8704,0.8722,0.8734,0.8763,0.8774,0.8798,0.8826,0.8855,0.8874,0.8903,0.8941,0.8948,0.8956,0.8957,0.8958,0.8961,0.8981,0.8984,0.895,0.895,0.895,0,0,0.8573,0.8599,0.8616,0.8662,0.8685,0.8713,0.8713,0.8744,0.8765,0.8779,0.8815,0.8834,0.8865,0.8903,0.8921,0.8919,0.8972,0.896,0.8961,0.8963,0.8983,0.8986,0.8989,0.8951,0.8951,0.8951,0,0,0.8598,0.8622,0.8651,0.8673,0.8706,0.8724,0.873,0.8766,0.8779,0.8816,0.8826,0.8851,0.8901,0.8923,0.894,0.8971,0.8977,0.8979,0.8988,0.9006,0.9009,0.9011,0.9021,0.9024,0.8982,0.8982,0.8982,0,0.8602,0.8645,0.8665,0.8694,0.8714,0.8727,0.8755,0.8776,0.8817,0.8829,0.8827,0.8889,0.8911,0.8953,0.896,0.8974,0.8981,0.8975,0.9007,0.901,0.9012,0.9021,0.9025,0.8982,0.8982,0.8982,0.8982,0,0.8647,0.8677,0.8696,0.8735,0.8756,0.8785,0.8808,0.8827,0.8837,0.8854,0.889,0.8917,0.895,0.8961,0.8971,0.9004,0.9001,0.9003,0.8998,0.9015,0.9024,0.9028,0.8982,0.8982,0.8982,0.8982,0,0,0.867,0.8718,0.8724,0.8741,0.8778,0.8801,0.883,0.8862,0.8877,0.8905,0.8928,0.8969,0.897,0.899,0.9002,0.9018,0.9039,0.9017,0.9018,0.902,0.9074,0.9072,0.9076,0.9043,0.9044,0.9044,0.9071,0,0.8699,0.8752,0.8769,0.8812,0.8838,0.885,0.8875,0.8899,0.8915,0.894,0.8957,0.8985,0.8985,0.8997,0.9013,0.9033,0.905,0.9031,0.9064,0.9065,0.9056,0.9081,0.908,0.9104,0.9075,0.9075,0.9076,0,0.8741,0.8768,0.8813,0.8845,0.8857,0.8879,0.8909,0.8932,0.8959,0.897,0.899,0.9001,0.903,0.9023,0.9062,0.9049,0.9063,0.9074,0.9076,0.9079,0.9071,0.9085,0.9112,0.9116,0.9082,0.9081,0.9081,0,0.8752,0.88,0.8832,0.8847,0.8884,0.8899,0.8915,0.8942,0.896,0.8985,0.8997,0.9026,0.9041,0.9063,0.908,0.9074,0.9117,0.9112,0.9125,0.9125,0.9134,0.9133,0.9164,0.9144,0.9144,0.9144,0.9144,0,0.8782,0.8809,0.8837,0.8858,0.8888,0.8906,0.8935,0.8952,0.8975,0.8998,0.9009,0.903,0.9052,0.9075,0.9089,0.9118,0.9125,0.9134,0.9137,0.9133,0.9131,0.9142,0.9141,0.9145,0.9145,0.9145,0.9144,0,0.88,0.882,0.8856,0.8888,0.8897,0.8917,0.8944,0.8964,0.8979,0.9008,0.9015,0.904,0.9068,0.9087,0.9123,0.9132,0.9163,0.9166,0.9154,0.9155,0.9167,0.9166,0.9205,0.9211,0.9188,0.9188,0.9188,0,0.8818,0.8839,0.8873,0.8889,0.8905,0.8931,0.8948,0.8967,0.8985,0.9016,0.9031,0.9059,0.9083,0.9126,0.9147,0.9174,0.9177,0.9189,0.9182,0.9176,0.9176,0.9175,0.9176,0.9191,0.9191,0.9191,0.9191,0,0.8847,0.8856,0.8881,0.8909,0.893,0.8953,0.8976,0.8989,0.9011,0.903,0.9058,0.9077,0.9112,0.914,0.9168,0.9184,0.919,0.9193,0.9197,0.9193,0.9184,0.9188,0.9157,0.9192,0.9192,0.9192,0.9192,0.9192,0.8865,0.8884,0.891,0.8937,0.8956,0.8977,0.8996,0.9014,0.9038,0.9068,0.9077,0.9106,0.9131,0.9169,0.9185,0.9207,0.9206,0.9213,0.9214,0.9216,0.9215,0.9181,0.9212,0.9212,0.9212,0.9212,0.9212,0,0.8894,0.8911,0.8936,0.8968,0.8989,0.8993,0.9018,0.9035,0.9061,0.9083,0.9106,0.9137,0.9163,0.9185,0.9211,0.9225,0.9228,0.9231,0.923,0.9233,0.9215,0.9208,0.9228,0.9228,0.9228,0.9228,0.9228,0.9227,0.8912,0.8943,0.8954,0.8993,0.901,0.9039,0.9052,0.9071,0.9089,0.9123,0.9145,0.9159,0.918,0.9208,0.9232,0.9237,0.9246,0.9248,0.9254,0.9237,0.9235,0.9233,0.9227,0.925,0.925,0.9271,0.9271,0.9271]}]]